When you browse on this site, cookies collect data to enhance your experience and personalize the content and advertising you see.
Visit our Privacy Policy to learn more. By continuing to use the site, you agree to this use of cookies and data.

Hourly Weather Kalinovka

Today, 4 August, Tuesday

Time Temperature Precipitation Wind Pressure Humidity
00:00 +15°C° 0 mm 4 mps 734 mmHg 67%
01:00 +15°C° 0 mm 4 mps 734 mmHg 68%
02:00 +15°C° 0 mm 4 mps 735 mmHg 68%
03:00 +14°C° 0 mm 4 mps 734 mmHg 70%
04:00 +14°C° 0 mm 4 mps 734 mmHg 73%
05:00 +13°C° 0 mm 4 mps 734 mmHg 75%
06:00 +15°C° 0 mm 4 mps 734 mmHg 70%
07:00 +17°C° 0 mm 5 mps 735 mmHg 65%
08:00 +20°C° 0 mm 5 mps 735 mmHg 59%
09:00 +22°C° 0 mm 5 mps 735 mmHg 54%
10:00 +23°C° 0 mm 6 mps 735 mmHg 50%
11:00 +24°C° 0 mm 6 mps 735 mmHg 45%
12:00 +26°C° 0 mm 6 mps 735 mmHg 44%
13:00 +26°C° 0 mm 6 mps 735 mmHg 44%
14:00 +27°C° 0 mm 6 mps 735 mmHg 43%
15:00 +27°C° 0 mm 5 mps 735 mmHg 46%
16:00 +27°C° 0 mm 4 mps 735 mmHg 49%
17:00 +26°C° 0 mm 4 mps 734 mmHg 52%
18:00 +25°C° 0 mm 4 mps 734 mmHg 55%
19:00 +22°C° 0 mm 3 mps 734 mmHg 58%
20:00 +20°C° 0 mm 3 mps 734 mmHg 61%
21:00 +20°C° 0 mm 3 mps 734 mmHg 60%
22:00 +19°C° 0 mm 3 mps 734 mmHg 59%
23:00 +19°C° 0 mm 3 mps 735 mmHg 57%

Tomorrow, 5 August, Wednesday

Time Temperature Precipitation Wind Pressure Humidity
00:00 +18°C° 0 mm 3 mps 735 mmHg 59%
01:00 +18°C° 0 mm 3 mps 735 mmHg 61%
02:00 +17°C° 0 mm 2 mps 735 mmHg 63%
03:00 +17°C° 0 mm 2 mps 735 mmHg 63%
04:00 +16°C° 0 mm 2 mps 735 mmHg 63%
05:00 +16°C° 0 mm 2 mps 735 mmHg 64%
06:00 +18°C° 0 mm 2 mps 736 mmHg 61%
07:00 +20°C° 0 mm 2 mps 736 mmHg 58%
08:00 +21°C° 0 mm 2 mps 736 mmHg 56%
09:00 +24°C° 0 mm 3 mps 737 mmHg 53%
10:00 +26°C° 0 mm 3 mps 737 mmHg 49%
11:00 +28°C° 0 mm 3 mps 737 mmHg 46%
12:00 +28°C° 0 mm 3 mps 737 mmHg 44%
13:00 +29°C° 0 mm 3 mps 737 mmHg 42%
14:00 +29°C° 0 mm 3 mps 737 mmHg 40%
15:00 +29°C° 0 mm 3 mps 737 mmHg 42%
16:00 +29°C° 0 mm 2 mps 737 mmHg 44%
17:00 +29°C° 0 mm 2 mps 737 mmHg 47%
18:00 +27°C° 0 mm 2 mps 737 mmHg 50%
19:00 +25°C° 0 mm 2 mps 737 mmHg 54%
20:00 +23°C° 0 mm 2 mps 737 mmHg 58%
21:00 +21°C° 0 mm 2 mps 738 mmHg 59%
22:00 +21°C° 0 mm 2 mps 738 mmHg 60%
23:00 +20°C° 0 mm 2 mps 738 mmHg 62%

Day after tomorrow, 6 August, Thursday

Time Temperature Precipitation Wind Pressure Humidity
00:00 +19°C° 0 mm 2 mps 738 mmHg 63%
01:00 +19°C° 0 mm 2 mps 738 mmHg 64%
02:00 +19°C° 0 mm 2 mps 738 mmHg 65%
03:00 +18°C° 0 mm 2 mps 739 mmHg 66%
04:00 +18°C° 0 mm 2 mps 739 mmHg 67%
05:00 +18°C° 0 mm 2 mps 739 mmHg 69%
06:00 +19°C° 0 mm 2 mps 739 mmHg 66%
07:00 +21°C° 0 mm 2 mps 740 mmHg 63%
08:00 +24°C° 0 mm 2 mps 740 mmHg 60%
09:00 +25°C° 0 mm 2 mps 740 mmHg 56%
10:00 +27°C° 0 mm 3 mps 741 mmHg 52%
11:00 +28°C° 0 mm 3 mps 741 mmHg 47%
12:00 +29°C° 0 mm 3 mps 741 mmHg 47%
13:00 +29°C° 0 mm 4 mps 741 mmHg 46%
14:00 +29°C° 0 mm 4 mps 741 mmHg 45%
15:00 +29°C° 0 mm 4 mps 740 mmHg 47%
16:00 +28°C° 0 mm 4 mps 740 mmHg 50%
17:00 +28°C° 0 mm 4 mps 740 mmHg 52%
18:00 +26°C° 0 mm 3 mps 740 mmHg 56%
19:00 +24°C° 0 mm 3 mps 740 mmHg 61%
20:00 +23°C° 0 mm 2 mps 740 mmHg 65%
21:00 +21°C° 0 mm 2 mps 740 mmHg 67%
22:00 +20°C° 0 mm 2 mps 741 mmHg 68%
23:00 +20°C° 0 mm 2 mps 741 mmHg 70%

7 August, Friday

Time Temperature Precipitation Wind Pressure Humidity
00:00 +19°C° 0 mm 2 mps 741 mmHg 72%
01:00 +18°C° 0 mm 2 mps 741 mmHg 74%
02:00 +18°C° 0 mm 2 mps 741 mmHg 76%
03:00 +18°C° 0 mm 2 mps 741 mmHg 78%
04:00 +17°C° 0 mm 2 mps 741 mmHg 79%
05:00 +17°C° 0 mm 2 mps 741 mmHg 81%
06:00 +19°C° 0 mm 2 mps 741 mmHg 77%
07:00 +21°C° 0 mm 3 mps 741 mmHg 72%
08:00 +22°C° 0 mm 3 mps 741 mmHg 68%
09:00 +25°C° 0 mm 3 mps 741 mmHg 63%
10:00 +27°C° 0 mm 4 mps 742 mmHg 58%
11:00 +28°C° 0 mm 4 mps 742 mmHg 53%
12:00 +28°C° 0 mm 4 mps 741 mmHg 53%
13:00 +29°C° 0 mm 4 mps 741 mmHg 53%
14:00 +29°C° 0 mm 3 mps 741 mmHg 53%
15:00 +29°C° 0.1 mm 3 mps 740 mmHg 56%
16:00 +28°C° 0.1 mm 3 mps 740 mmHg 58%
17:00 +28°C° 0.1 mm 3 mps 740 mmHg 60%
18:00 +26°C° 0.1 mm 3 mps 740 mmHg 68%
19:00 +25°C° 0.1 mm 3 mps 740 mmHg 76%
20:00 +22°C° 0.1 mm 3 mps 740 mmHg 83%
21:00 +21°C° 0 mm 3 mps 740 mmHg 83%
22:00 +20°C° 0 mm 3 mps 740 mmHg 84%
23:00 +19°C° 0 mm 4 mps 740 mmHg 84%

8 August, Saturday

Time Temperature Precipitation Wind Pressure Humidity
00:00 +19°C° 0 mm 3 mps 740 mmHg 86%
01:00 +18°C° 0 mm 3 mps 740 mmHg 88%
02:00 +17°C° 0 mm 3 mps 740 mmHg 90%
03:00 +17°C° 0 mm 3 mps 740 mmHg 91%
04:00 +16°C° 0 mm 3 mps 740 mmHg 91%
05:00 +16°C° 0 mm 3 mps 740 mmHg 92%
06:00 +17°C° 0 mm 3 mps 740 mmHg 85%
07:00 +19°C° 0 mm 4 mps 740 mmHg 78%
08:00 +21°C° 0 mm 4 mps 740 mmHg 71%
09:00 +22°C° 0 mm 4 mps 740 mmHg 66%
10:00 +23°C° 0 mm 5 mps 740 mmHg 61%
11:00 +25°C° 0 mm 5 mps 740 mmHg 57%
12:00 +26°C° 0 mm 5 mps 740 mmHg 55%
13:00 +26°C° 0 mm 5 mps 739 mmHg 54%
14:00 +27°C° 0 mm 5 mps 739 mmHg 53%
15:00 +26°C° 0 mm 5 mps 739 mmHg 54%
16:00 +26°C° 0 mm 5 mps 738 mmHg 55%
17:00 +26°C° 0 mm 4 mps 738 mmHg 56%
18:00 +23°C° 0 mm 4 mps 738 mmHg 62%
19:00 +21°C° 0 mm 3 mps 738 mmHg 69%
20:00 +19°C° 0 mm 3 mps 738 mmHg 76%
21:00 +19°C° 0 mm 3 mps 738 mmHg 78%
22:00 +18°C° 0 mm 2 mps 738 mmHg 80%
23:00 +17°C° 0 mm 2 mps 738 mmHg 82%

9 August, Sunday

Time Temperature Precipitation Wind Pressure Humidity
00:00 +17°C° 0 mm 2 mps 738 mmHg 82%
01:00 +17°C° 0 mm 2 mps 737 mmHg 82%
02:00 +16°C° 0 mm 2 mps 737 mmHg 83%
03:00 +16°C° 0 mm 2 mps 737 mmHg 84%
04:00 +15°C° 0 mm 2 mps 737 mmHg 86%
05:00 +15°C° 0 mm 2 mps 737 mmHg 88%
06:00 +17°C° 0 mm 2 mps 737 mmHg 82%
07:00 +18°C° 0 mm 3 mps 737 mmHg 76%
08:00 +20°C° 0 mm 3 mps 737 mmHg 71%
09:00 +21°C° 0 mm 3 mps 737 mmHg 64%
10:00 +22°C° 0 mm 4 mps 737 mmHg 58%
11:00 +23°C° 0 mm 4 mps 737 mmHg 52%
12:00 +25°C° 0 mm 4 mps 737 mmHg 49%
13:00 +25°C° 0 mm 4 mps 737 mmHg 47%
14:00 +26°C° 0 mm 4 mps 736 mmHg 45%
15:00 +26°C° 0 mm 4 mps 736 mmHg 46%
16:00 +25°C° 0 mm 3 mps 736 mmHg 47%
17:00 +25°C° 0 mm 3 mps 736 mmHg 49%
18:00 +22°C° 0 mm 3 mps 736 mmHg 54%
19:00 +20°C° 0 mm 2 mps 736 mmHg 60%
20:00 +18°C° 0 mm 2 mps 736 mmHg 65%
21:00 +19°C° 0 mm 1 mps 736 mmHg 67%
22:00 +18°C° 0 mm 1 mps 736 mmHg 70%
23:00 +16°C° 0 mm 1 mps 736 mmHg 72%
Show more